Regional Weather Roundup
Issued by NWS

Home | Current Version | Previous Version | Graphics & Text | Print | Product List | Glossary On
Versions: 1 2 3 4 5 6 7 8 9 10 11 12 13 14 15 16 17 18 19 20 21 22 23 24 25 26 27 28 29 30 31 32 33 34 35 36 37 38 39 40 41 42 43 44 45 46 47 48 49 50
000
ASUS43 KFSD 211002
RWRSD

WEATHER ROUNDUP FOR SOUTH DAKOTA
NATIONAL WEATHER SERVICE SIOUX FALLS SD
500 AM CDT SUN SEP 21 2014

NOTE: "FAIR" INDICATES FEW OR NO CLOUDS BELOW 12,000 FEET WITH NO
SIGNIFICANT WEATHER AND/OR OBSTRUCTIONS TO VISIBILITY.


SDZ001>005-009-010-012>017-211100-
NORTHWEST AND NORTH CENTRAL SOUTH DAKOTA

CITY           SKY/WX    TMP DP  RH WIND       PRES   REMARKS
FAITH            N/A     46  36  68 NW9       30.27R
MOBRIDGE       CLEAR     47  43  86 NW8       30.19R
$$

SDZ012>016-024>037-041>051-057-063-072>074-211100-
SOUTHWEST AND SOUTH CENTRAL SOUTH DAKOTA

CITY           SKY/WX    TMP DP  RH WIND       PRES   REMARKS
RAPID CTY ARPT CLEAR     49  37  63 NW10      30.32R
PIERRE         CLEAR     53  43  68 W9        30.21R
CUSTER         CLEAR     43  32  65 W5        30.38S
ELLSWORTH AFB  CLEAR     45  36  70 W6        30.31R
PHILIP         CLEAR     42  37  82 W9        30.28R
PINE RIDGE     CLEAR     37  35  92 CALM      30.33R
WINNER         FAIR      49  38  65 W8        30.23R
$$

SDZ004>011-016>023-039-040-211100-
NORTHEAST SOUTH DAKOTA

CITY           SKY/WX    TMP DP  RH WIND       PRES   REMARKS
ABERDEEN       CLEAR     52  43  71 NW10      30.13R
WATERTOWN      CLEAR     51  45  79 NW15      30.09R
SISSETON         N/A     51  48  89 N10       30.07R
$$

SDZ017-020-022-023-036>040-048>070-211100-
SOUTHEAST SOUTH DAKOTA

CITY           SKY/WX    TMP DP  RH WIND       PRES   REMARKS
SIOUX FALLS    CLEAR     50  43  77 W9        30.10R
HURON          CLEAR     50  40  68 NW9       30.14R
CHAMBERLAIN    CLEAR     49  40  69 NW8       30.20R
MITCHELL       CLEAR     50  42  74 W8        30.15R
YANKTON        CLEAR     52  43  71 NW9       30.14R
$$

ABBREVIATIONS USED IN REMARKS
   TC - TEMPERATURE IN CELSIUS
  WCI - WIND CHILL INDEX
   HX - HEAT INDEX
  VSB - VISIBILITY



USA.gov is the U.S. government's official web portal to all federal, state and local government web resources and services.